[[{"header":{"parameterUnit":"m.s-1","parameterCategory":2,"la1":30.2992,"la2":30.254,"lo1":-89.0895,"lo2":-89.0443,"dy":0.0025,"dx":0.0025,"nx":19,"ny":19,"refTime":"2026-04-30T09:00:00:Z","depth":"0","parameterNumber":2,"parameterNumberName":"U-component_of_CURRENTS"},"data":[0,0,0,-0.0813,-0.081,-0.0718,-0.0718,-0.0723,-0.0723,0,0,0,0,0,0,0,0,0,0,0,-0.0857,-0.0856,-0.0814,-0.081,-0.0718,-0.0718,-0.0723,-0.0723,0,0,0,0,0,0,0,0,0,0,0,-0.0858,-0.0857,-0.0855,-0.081,-0.0718,-0.0718,-0.0723,-0.077,0,0,0,0,0,0,0,0,0,0,-0.0848,-0.0898,-0.0857,-0.0855,-0.0809,-0.0718,-0.0718,-0.0771,-0.0767,-0.079,0,-0.0754,0,-0.072,-0.0723,-0.0723,0,0,0,-0.0843,-0.0901,-0.0828,-0.0855,-0.0807,-0.0717,-0.0769,-0.0768,-0.0763,-0.0785,-0.0753,-0.0752,-0.072,-0.0723,-0.0723,-0.072,-0.072,0,0,-0.0848,-0.0895,-0.083,-0.0824,-0.0757,-0.0771,-0.0765,-0.0764,-0.078,-0.0753,-0.0751,-0.072,-0.0723,-0.0723,-0.072,-0.072,0,0,0,-0.0841,-0.09,-0.0825,-0.0825,-0.0788,-0.0768,-0.0761,-0.0782,-0.0741,-0.0751,-0.072,-0.0723,-0.0723,-0.0721,-0.072,-0.0722,0,0,0,-0.0845,-0.0891,-0.0827,-0.0863,-0.0786,-0.0775,-0.0779,-0.0742,-0.074,-0.072,-0.0723,-0.0723,-0.0721,-0.072,-0.0722,-0.071,0,0,0,-0.0866,-0.0895,-0.0864,-0.0864,-0.0801,-0.0773,-0.0737,-0.0741,-0.072,-0.0723,-0.0723,-0.0721,-0.0721,-0.0722,-0.0711,-0.0694,0,0,0,-0.0946,-0.0906,-0.0866,-0.0806,-0.0801,-0.0737,-0.0736,-0.0719,-0.0721,-0.0723,-0.0721,-0.072,-0.0722,-0.0711,-0.0695,-0.0579,-0.0568,0,0,-0.0935,-0.0908,-0.0861,-0.082,-0.0741,-0.0753,-0.0733,-0.0733,-0.0729,-0.0736,-0.0735,-0.0722,-0.0711,-0.0695,-0.0574,-0.0562,0,0,0,-0.0881,-0.0842,-0.0816,-0.0749,-0.0707,-0.0716,-0.0714,-0.0718,-0.0719,-0.0719,-0.072,-0.0712,-0.0702,-0.0633,-0.0624,-0.0497,-0.072,-0.072,-0.072,-0.0894,-0.0827,-0.0766,-0.0698,-0.0688,-0.0692,-0.0705,-0.0712,-0.0718,-0.0717,-0.0712,-0.0698,-0.0625,-0.0617,-0.0487,-0.0718,-0.0718,-0.0718,-0.0718,-0.0841,-0.0757,-0.0733,-0.0658,-0.0654,-0.0649,-0.0685,-0.0699,-0.0702,-0.071,-0.07,-0.0637,-0.0607,-0.0472,-0.0718,-0.0718,-0.0718,-0.0718,-0.0718,-0.0816,-0.0761,-0.074,-0.0662,-0.0616,-0.0621,-0.0613,-0.066,-0.0684,-0.0686,-0.0599,-0.0597,-0.0479,-0.0679,-0.0679,-0.0679,-0.0679,-0.0679,-0.0678,-0.0772,-0.0749,-0.0729,-0.0656,-0.0592,-0.0556,-0.0574,-0.0579,-0.0576,-0.0577,-0.0576,-0.0442,-0.0686,-0.0687,-0.0677,-0.0677,-0.0677,-0.0677,-0.0677,-0.0578,-0.0712,-0.067,-0.0635,-0.0517,-0.0448,-0.0477,-0.0435,-0.0448,-0.0414,-0.0283,-0.0516,-0.0499,-0.0504,-0.0501,-0.0443,-0.0443,-0.0443,-0.0443,-0.0496,-0.0548,-0.0575,-0.0545,-0.046,-0.0395,-0.0285,-0.0226,-0.0155,-0.0079,-0.0117,-0.0084,-0.01,-0.0059,-0.0074,-0.0062,0.0105,0.0106,0.0107,-0.0333,-0.0424,-0.0398,-0.0495,-0.0404,-0.0324,-0.0172,0.0017,0.0144,0.0137,0.0038,0.0015,0.0065,0.0031,0.0093,0.0061,0.0079,0,0]},{"header":{"parameterUnit":"m.s-1","parameterCategory":2,"la1":30.2992,"la2":30.254,"lo1":-89.0895,"lo2":-89.0443,"dy":0.0025,"dx":0.0025,"nx":19,"ny":19,"refTime":"2026-04-30T09:00:00:Z","depth":"0","parameterNumber":3,"parameterNumberName":"V-component_of_CURRENTS"},"data":[0,0,0,-0.0036,-0.004,-0.0218,-0.0219,-0.0451,-0.0453,0,0,0,0,0,0,0,0,0,0,0,0.003,0.003,-0.0036,-0.004,-0.0218,-0.0219,-0.0451,-0.0453,0,0,0,0,0,0,0,0,0,0,0,0.0031,0.003,0.0029,-0.004,-0.0218,-0.0219,-0.045,-0.032,0,0,0,0,0,0,0,0,0,0,-0.0148,-0.0083,0.003,0.0029,-0.0041,-0.0218,-0.022,-0.0314,-0.0328,-0.0364,0,-0.0377,0,-0.0414,-0.0466,-0.0467,0,0,0,-0.0061,-0.0071,-0.0111,0.0029,-0.0043,-0.0217,-0.0144,-0.0322,-0.0338,-0.0383,-0.038,-0.0389,-0.0418,-0.0468,-0.0469,-0.0644,-0.0644,0,0,-0.0051,-0.0018,-0.01,-0.0121,-0.007,-0.0138,-0.0149,-0.0332,-0.0345,-0.0381,-0.0395,-0.0421,-0.0469,-0.0471,-0.0643,-0.0644,0,0,0,-0.0009,-0.001,-0.0047,-0.0111,-0.014,-0.0143,-0.0156,-0.0337,-0.0347,-0.0398,-0.0424,-0.047,-0.0473,-0.0643,-0.0644,-0.0624,0,0,0,-0.0004,0.0016,-0.0042,-0.0026,-0.0135,-0.0242,-0.0157,-0.0334,-0.0356,-0.0423,-0.047,-0.0475,-0.0643,-0.0643,-0.0623,-0.0592,0,0,0,0.0035,0.0019,0.0007,-0.0023,-0.0091,-0.0239,-0.0261,-0.034,-0.0371,-0.0467,-0.0475,-0.0642,-0.0643,-0.0623,-0.0592,-0.0607,0,0,0,0.0063,0.004,0.0008,-0.0033,-0.0089,-0.0214,-0.0261,-0.0369,-0.045,-0.0471,-0.0643,-0.0644,-0.0623,-0.0593,-0.0607,-0.0607,-0.0607,0,0,0.0049,0.0039,0.0014,-0.0019,-0.0124,-0.0192,-0.0311,-0.0426,-0.0475,-0.0586,-0.059,-0.0623,-0.0592,-0.0607,-0.0661,-0.0659,0,0,0,0.0019,0.0001,-0.0038,-0.0102,-0.0195,-0.029,-0.0406,-0.0455,-0.0558,-0.0524,-0.0648,-0.0629,-0.0639,-0.064,-0.0639,-0.0555,-0.0648,-0.0648,-0.0648,0.003,-0.0018,-0.0081,-0.016,-0.024,-0.0374,-0.0445,-0.0531,-0.0585,-0.0618,-0.0633,-0.0653,-0.0655,-0.0654,-0.0568,-0.0667,-0.0667,-0.0667,-0.0667,-0.0005,-0.0038,-0.0107,-0.0182,-0.0274,-0.0371,-0.0499,-0.0538,-0.0625,-0.0645,-0.0657,-0.0643,-0.0651,-0.056,-0.0666,-0.0667,-0.0667,-0.0667,-0.0667,-0.0002,-0.0022,-0.0069,-0.0174,-0.0258,-0.0367,-0.0449,-0.0525,-0.0592,-0.061,-0.0635,-0.0635,-0.0538,-0.0628,-0.0628,-0.0628,-0.0628,-0.0628,-0.0628,0.0025,-0.0025,-0.0085,-0.0174,-0.023,-0.0312,-0.0423,-0.0482,-0.0561,-0.0604,-0.0605,-0.0537,-0.0641,-0.0622,-0.0627,-0.0627,-0.0627,-0.0627,-0.0627,0.002,0.0006,-0.0083,-0.0142,-0.0268,-0.0321,-0.04,-0.0494,-0.0551,-0.0585,-0.0509,-0.0617,-0.0622,-0.0624,-0.0606,-0.0605,-0.0605,-0.0605,-0.0605,0.0038,0.0017,-0.0098,-0.0199,-0.0292,-0.0341,-0.0387,-0.0447,-0.0482,-0.0461,-0.0451,-0.0445,-0.045,-0.0444,-0.045,-0.0428,-0.0383,-0.0382,-0.0382,0.0028,-0.0002,-0.0086,-0.0199,-0.0311,-0.0351,-0.0351,-0.0333,-0.0362,-0.0363,-0.033,-0.0339,-0.0321,-0.0336,-0.0322,-0.0337,-0.0301,0,0]}],[{"header":{"parameterUnit":"m.s-1","parameterCategory":2,"la1":30.2992,"la2":30.254,"lo1":-89.0895,"lo2":-89.0443,"dy":0.0025,"dx":0.0025,"nx":19,"ny":19,"refTime":"2026-04-30T09:00:00:Z","depth":"2","parameterNumber":2,"parameterNumberName":"U-component_of_CURRENTS"},"data":[0,0,0,-0.1263,-0.1266,-0.132,-0.1319,-0.1466,-0.1468,0,0,0,0,0,0,0,0,0,0,0,-0.1212,-0.1213,-0.1263,-0.1266,-0.132,-0.1319,-0.1466,-0.1468,0,0,0,0,0,0,0,0,0,0,0,-0.1212,-0.1213,-0.1214,-0.1267,-0.132,-0.1319,-0.1465,-0.1392,0,0,0,0,0,0,0,0,0,0,-0.1324,-0.1256,-0.1213,-0.1214,-0.1268,-0.132,-0.1319,-0.1387,-0.1397,-0.1482,0,-0.1505,0,-0.1535,-0.1485,-0.1486,0,0,0,-0.1211,-0.1247,-0.1311,-0.1214,-0.1269,-0.132,-0.128,-0.1391,-0.1402,-0.1495,-0.1508,-0.1514,-0.1537,-0.1487,-0.1488,-0.17,-0.1701,0,0,-0.1208,-0.1175,-0.1303,-0.1319,-0.1308,-0.1279,-0.1283,-0.1396,-0.1393,-0.1508,-0.1518,-0.154,-0.1488,-0.149,-0.17,-0.1701,0,0,0,-0.1237,-0.1172,-0.1228,-0.1312,-0.1341,-0.1282,-0.1286,-0.1385,-0.1419,-0.1519,-0.1541,-0.149,-0.1493,-0.17,-0.17,-0.1519,0,0,0,-0.1232,-0.1195,-0.1227,-0.1201,-0.1339,-0.1349,-0.1272,-0.1408,-0.1424,-0.1541,-0.149,-0.1495,-0.1699,-0.17,-0.1523,-0.147,0,0,0,-0.1205,-0.1191,-0.1214,-0.12,-0.1258,-0.1348,-0.1382,-0.141,-0.1442,-0.1486,-0.1496,-0.1699,-0.17,-0.1526,-0.1477,-0.1418,0,0,0,-0.1143,-0.116,-0.1213,-0.1258,-0.1258,-0.1321,-0.138,-0.1406,-0.1434,-0.1491,-0.1699,-0.17,-0.1528,-0.1481,-0.1422,-0.1406,-0.1386,0,0,-0.113,-0.1157,-0.1194,-0.1246,-0.1299,-0.1308,-0.133,-0.1389,-0.1488,-0.1657,-0.1661,-0.1522,-0.1477,-0.1418,-0.147,-0.1447,0,0,0,-0.117,-0.119,-0.1216,-0.1273,-0.1331,-0.1295,-0.1364,-0.1413,-0.149,-0.1527,-0.1596,-0.1576,-0.1542,-0.1545,-0.1528,-0.1705,-0.1705,-0.1705,-0.1705,-0.1109,-0.1177,-0.1216,-0.1274,-0.1276,-0.1308,-0.1295,-0.1387,-0.1479,-0.1493,-0.148,-0.1391,-0.1394,-0.1381,-0.1531,-0.153,-0.1529,-0.1529,-0.1529,-0.11,-0.1137,-0.1188,-0.1233,-0.1234,-0.1227,-0.1258,-0.1279,-0.1332,-0.1422,-0.1396,-0.1421,-0.1351,-0.1516,-0.1518,-0.152,-0.1521,-0.1522,-0.1523,-0.1056,-0.1074,-0.1119,-0.1149,-0.1145,-0.1143,-0.1093,-0.1125,-0.1195,-0.1157,-0.1196,-0.12,-0.1252,-0.113,-0.1129,-0.1129,-0.1128,-0.1128,-0.1128,-0.0973,-0.1016,-0.1008,-0.1054,-0.1048,-0.1011,-0.0996,-0.0993,-0.0998,-0.1042,-0.1043,-0.1258,-0.1271,-0.1235,-0.112,-0.1121,-0.1122,-0.1123,-0.1123,-0.0892,-0.0892,-0.0868,-0.0871,-0.089,-0.0828,-0.0861,-0.0845,-0.0853,-0.0853,-0.0992,-0.0998,-0.1064,-0.1082,-0.1045,-0.0887,-0.0887,-0.0887,-0.0887,-0.0815,-0.0825,-0.0754,-0.0717,-0.0709,-0.0729,-0.0678,-0.0748,-0.0818,-0.0877,-0.0877,-0.0952,-0.0961,-0.1029,-0.1047,-0.1014,-0.0848,-0.0848,-0.0848,-0.0744,-0.0738,-0.0659,-0.0645,-0.0627,-0.0616,-0.0582,-0.0665,-0.0812,-0.085,-0.0902,-0.0879,-0.0995,-0.1007,-0.1125,-0.1148,-0.1101,0,0]},{"header":{"parameterUnit":"m.s-1","parameterCategory":2,"la1":30.2992,"la2":30.254,"lo1":-89.0895,"lo2":-89.0443,"dy":0.0025,"dx":0.0025,"nx":19,"ny":19,"refTime":"2026-04-30T09:00:00:Z","depth":"2","parameterNumber":3,"parameterNumberName":"V-component_of_CURRENTS"},"data":[0,0,0,0.0144,0.0144,0.0061,0.006,0.0056,0.0056,0,0,0,0,0,0,0,0,0,0,0,0.0151,0.0151,0.0144,0.0144,0.0061,0.006,0.0055,0.0056,0,0,0,0,0,0,0,0,0,0,0,0.0151,0.0151,0.0151,0.0144,0.0061,0.006,0.0055,0.0081,0,0,0,0,0,0,0,0,0,0,0.0144,0.0145,0.0151,0.0151,0.0144,0.0061,0.006,0.0081,0.008,0.0137,0,0.0138,0,0.0133,0.0063,0.0063,0,0,0,0.0096,0.0146,0.0147,0.0151,0.0144,0.0062,0.0085,0.0079,0.0078,0.0137,0.0138,0.0138,0.0133,0.0063,0.0064,0.0058,0.0057,0,0,0.0101,0.0113,0.0147,0.0146,0.0144,0.0088,0.0083,0.0077,0.0075,0.0138,0.0137,0.0133,0.0064,0.0065,0.0059,0.0058,0,0,0,0.0146,0.0116,0.0112,0.0147,0.0143,0.0087,0.0081,0.0073,0.0079,0.0137,0.0132,0.0065,0.0066,0.0059,0.0058,-0.009,0,0,0,0.0147,0.0147,0.0115,0.0117,0.0143,0.0094,0.0078,0.0078,0.0078,0.0132,0.0065,0.0067,0.006,0.0059,-0.0084,-0.0067,0,0,0,0.0151,0.0147,0.0148,0.0119,0.0109,0.0094,0.0094,0.0076,0.0079,0.0063,0.0067,0.0061,0.0059,-0.0079,-0.0061,-0.0086,0,0,0,0.015,0.0138,0.0148,0.0132,0.0111,0.0034,0.0093,0.0026,-0.0001,0.0065,0.006,0.0058,-0.0077,-0.0057,-0.0082,-0.0044,-0.0058,0,0,0.013,0.0135,0.0125,0.0134,0.007,0.0041,-0.0056,-0.0059,-0.0002,0.0064,0.0063,-0.0086,-0.006,-0.0085,-0.0152,-0.0162,0,0,0,0.0116,0.0108,0.0088,0.0063,0.0016,-0.0071,-0.0098,-0.0107,-0.0121,-0.0013,-0.0083,-0.0059,-0.0071,-0.0041,-0.005,0.0049,0.005,0.005,0.005,0.0102,0.0081,0.0036,-0.0012,-0.007,-0.0159,-0.0225,-0.0231,-0.019,-0.0229,-0.0183,-0.0291,-0.0266,-0.0271,-0.0225,-0.0226,-0.0226,-0.0227,-0.0227,0.0062,0.0041,-0.0008,-0.006,-0.014,-0.0223,-0.0311,-0.0332,-0.0358,-0.0312,-0.032,-0.02,-0.0289,-0.0239,-0.0236,-0.0235,-0.0234,-0.0233,-0.0232,0.0057,0.0038,0.0008,-0.0083,-0.0168,-0.0259,-0.0334,-0.0391,-0.0416,-0.0455,-0.0372,-0.0368,-0.0331,-0.0468,-0.0469,-0.0469,-0.0469,-0.0469,-0.0469,0.0063,0.0025,-0.0027,-0.0109,-0.0164,-0.0243,-0.0345,-0.039,-0.0445,-0.0459,-0.0459,-0.037,-0.0362,-0.0341,-0.0471,-0.047,-0.047,-0.047,-0.047,0.0045,0.0041,-0.0041,-0.0095,-0.0217,-0.0268,-0.0341,-0.0412,-0.0458,-0.0476,-0.0463,-0.0463,-0.0382,-0.0373,-0.0351,-0.0474,-0.0474,-0.0474,-0.0474,0.0053,0.0038,-0.0061,-0.0156,-0.025,-0.0293,-0.0316,-0.0251,-0.0285,-0.0202,-0.0212,-0.017,-0.0178,-0.008,-0.0078,-0.0046,-0.009,-0.0088,-0.0087,0.0037,0.0014,-0.0059,-0.0156,-0.0271,-0.0304,-0.0262,-0.0015,0.0153,-0.0062,-0.0037,-0.0469,-0.0438,-0.0438,-0.0307,-0.0297,-0.0253,0,0]}],[{"header":{"parameterUnit":"m.s-1","parameterCategory":2,"la1":30.2992,"la2":30.254,"lo1":-89.0895,"lo2":-89.0443,"dy":0.0025,"dx":0.0025,"nx":19,"ny":19,"refTime":"2026-04-30T09:00:00:Z","depth":"4","parameterNumber":2,"parameterNumberName":"U-component_of_CURRENTS"},"data":[0,0,0,-0.0976,-0.0978,-0.1048,-0.1048,-0.1061,-0.1061,0,0,0,0,0,0,0,0,0,0,0,-0.0949,-0.095,-0.0976,-0.0978,-0.1048,-0.1048,-0.1061,-0.1061,0,0,0,0,0,0,0,0,0,0,0,-0.0948,-0.0949,-0.0951,-0.0979,-0.1048,-0.1048,-0.1061,-0.1022,0,0,0,0,0,0,0,0,0,0,-0.0961,-0.093,-0.0949,-0.0951,-0.0979,-0.1048,-0.1048,-0.1021,-0.1024,-0.1015,0,-0.1045,0,-0.1064,-0.1063,-0.1063,0,0,0,-0.0956,-0.0927,-0.0977,-0.0951,-0.098,-0.1048,-0.101,-0.1023,-0.1027,-0.102,-0.1045,-0.1046,-0.1065,-0.1063,-0.1063,-0.1101,-0.1101,0,0,-0.0952,-0.0925,-0.0974,-0.098,-0.1022,-0.1008,-0.1013,-0.1026,-0.1021,-0.1045,-0.1047,-0.1065,-0.1063,-0.1063,-0.1101,-0.1101,0,0,0,-0.0956,-0.0922,-0.0972,-0.0979,-0.1004,-0.1011,-0.1016,-0.1019,-0.1046,-0.1048,-0.1065,-0.1063,-0.1063,-0.1101,-0.1101,-0.1096,0,0,0,-0.0953,-0.0927,-0.0971,-0.095,-0.1005,-0.1017,-0.1008,-0.1044,-0.1047,-0.1065,-0.1063,-0.1063,-0.11,-0.1101,-0.1095,-0.1098,0,0,0,-0.0941,-0.0925,-0.0948,-0.0949,-0.0994,-0.1019,-0.1043,-0.1045,-0.1058,-0.1063,-0.1063,-0.11,-0.1101,-0.1095,-0.1097,-0.1168,0,0,0,-0.089,-0.0916,-0.0947,-0.0989,-0.0994,-0.1049,-0.1043,-0.1069,-0.1076,-0.1063,-0.11,-0.1101,-0.1095,-0.1097,-0.1167,-0.0928,0,0,0,-0.0893,-0.0915,-0.0946,-0.0977,-0.104,-0.1036,-0.1063,-0.1073,-0.1081,-0.1086,-0.1087,-0.1095,-0.1097,-0.1168,-0.097,0,0,0,0,-0.0929,-0.0951,-0.0976,-0.1027,-0.1071,-0.108,-0.1091,-0.1092,-0.1103,-0.1095,-0.1111,-0.1113,-0.1157,-0.1014,-0.1104,-0.1104,-0.1104,-0.1104,-0.1104,-0.0879,-0.0942,-0.0988,-0.1057,-0.1086,-0.1108,-0.1108,-0.1111,-0.1115,-0.1124,-0.1119,-0.1183,-0.1029,-0.113,-0.113,-0.113,-0.113,-0.113,-0.113,-0.088,-0.0914,-0.0991,-0.1053,-0.1095,-0.1115,-0.1125,-0.1122,-0.1152,-0.1131,-0.1176,-0.1029,-0.1129,-0.1129,-0.1129,-0.1129,-0.1129,-0.1129,-0.113,-0.0826,-0.0854,-0.091,-0.0996,-0.1067,-0.111,-0.1105,-0.1124,-0.1164,-0.1184,-0.1091,-0.1207,-0.1198,-0.1235,-0.1236,-0.1236,-0.1236,-0.1237,-0.1237,-0.074,-0.0803,-0.082,-0.0936,-0.0994,-0.105,-0.1094,-0.1066,-0.1124,-0.1075,-0.1215,-0.122,-0.1217,-0.1207,-0.1242,-0.1241,-0.124,-0.124,-0.1239,-0.0701,-0.0685,-0.07,-0.0746,-0.088,-0.0937,-0.1014,-0.0941,-0.0956,-0.093,-0.1027,-0.1036,-0.1031,-0.1034,-0.1016,-0.0997,-0.0994,-0.0991,0,-0.0635,-0.0641,-0.0602,-0.063,-0.0698,-0.0847,-0.0774,-0.0775,-0.0835,-0.0857,-0.0996,-0.1114,-0.1116,-0.1115,-0.1112,-0.1093,0,0,0,-0.0613,-0.0581,-0.0533,-0.0539,-0.0622,-0.0676,-0.0752,-0.0692,-0.0891,-0.0695,-0.0918,-0.0937,-0.0962,-0.1256,-0.1272,-0.1268,-0.1254,0,0]},{"header":{"parameterUnit":"m.s-1","parameterCategory":2,"la1":30.2992,"la2":30.254,"lo1":-89.0895,"lo2":-89.0443,"dy":0.0025,"dx":0.0025,"nx":19,"ny":19,"refTime":"2026-04-30T09:00:00:Z","depth":"4","parameterNumber":3,"parameterNumberName":"V-component_of_CURRENTS"},"data":[0,0,0,0.0111,0.0111,0.014,0.014,0.0236,0.0237,0,0,0,0,0,0,0,0,0,0,0,0.0106,0.0106,0.0111,0.0112,0.014,0.014,0.0236,0.0237,0,0,0,0,0,0,0,0,0,0,0,0.0106,0.0106,0.0106,0.0112,0.014,0.014,0.0235,0.0202,0,0,0,0,0,0,0,0,0,0,0.0169,0.0157,0.0106,0.0106,0.0112,0.014,0.014,0.02,0.0204,0.0236,0,0.0235,0,0.0232,0.0243,0.0244,0,0,0,0.0124,0.0153,0.0152,0.0106,0.0112,0.0139,0.013,0.0202,0.0207,0.0242,0.0236,0.0239,0.0234,0.0244,0.0244,0.0318,0.0318,0,0,0.0122,0.0124,0.0148,0.0155,0.0113,0.0129,0.0131,0.0204,0.0214,0.0236,0.0241,0.0235,0.0245,0.0245,0.0318,0.0318,0,0,0,0.0109,0.0123,0.0119,0.0151,0.0149,0.013,0.0132,0.0211,0.0207,0.0242,0.0236,0.0245,0.0246,0.0318,0.0318,0.0235,0,0,0,0.0109,0.0114,0.0118,0.0122,0.0146,0.0173,0.0137,0.0202,0.0209,0.0236,0.0245,0.0247,0.0318,0.0318,0.0237,0.0198,0,0,0,0.0106,0.0114,0.0113,0.0121,0.0126,0.0171,0.0172,0.0203,0.0206,0.0244,0.0248,0.0318,0.0318,0.0239,0.0202,0.0271,0,0,0,0.0113,0.0103,0.0113,0.0104,0.0126,0.0135,0.0171,0.0193,0.0222,0.0246,0.0318,0.0318,0.024,0.0205,0.0271,0.0267,0,0,0,0.0099,0.0101,0.0093,0.0103,0.0094,0.0132,0.0134,0.0187,0.0238,0.03,0.0302,0.0237,0.0202,0.0271,0.0277,0,0,0,0,0.0087,0.008,0.0082,0.008,0.0094,0.0101,0.0153,0.0175,0.022,0.0252,0.0263,0.0245,0.0291,0.0292,0.0319,0.0319,0.0319,0.0319,0.0319,0.0077,0.007,0.0053,0.005,0.0061,0.0088,0.0095,0.014,0.0198,0.0205,0.0197,0.0216,0.0211,0.0223,0.0222,0.0222,0.0222,0.0222,0.0221,0.0042,0.0026,0.0022,0.0001,0.001,0.002,0.005,0.0074,0.0128,0.0151,0.0201,0.0225,0.0214,0.0215,0.0216,0.0217,0.0218,0.0218,0.0219,0.0038,0.0023,0.0008,-0.003,-0.0045,-0.0029,-0.0041,-0.0015,0.0072,0.0079,0.0188,0.0198,0.0188,0.0151,0.0151,0.0151,0.0151,0.0152,0.0152,0.0034,0.0013,-0.0018,-0.0058,-0.0087,-0.0105,-0.0089,-0.0053,0.0036,0.0109,0.01,0.0194,0.0196,0.0188,0.0153,0.0153,0.0153,0.0153,0.0153,0.0007,0.0021,-0.0035,-0.0071,-0.0151,-0.0168,-0.0149,-0.0034,0.004,0.0143,0.0157,0.0156,0.0207,0.021,0.0204,0.0173,0.0173,0.0173,0,0.0009,0.0006,-0.0053,-0.0122,-0.0195,-0.0208,-0.0136,-0.0064,0.0067,0.0073,0.0056,0.0065,0.0067,0.0116,0.0119,0.0106,0,0,0,-0.0011,-0.0014,-0.0059,-0.0121,-0.022,-0.0161,-0.012,-0.0069,0.005,0.0122,0.0169,0.017,0.0099,0.0158,0.0237,0.024,0.0232,0,0]}]]